Regional Weather Roundup
Issued by NWS Albany, NY

Home | Current Version | Previous Version | Graphics & Text | Print | Product List | Glossary Off
Versions: 1 2 3 4 5 6 7 8 9 10 11 12 13 14 15 16 17 18 19 20 21 22

000
ASUS41 KALY 302310
RWRALY

NEW YORK STATE HOURLY WEATHER ROUNDUP
NATIONAL WEATHER SERVICE ALBANY NY
700 PM EDT THU OCT 30 2014

NOTE: "FAIR" INDICATES FEW OR NO CLOUDS BELOW 12,000 FEET WITH NO
SIGNIFICANT WEATHER AND/OR NO OBSTRUCTIONS TO VISIBILITY.

NYZ032-033-038>043-046>054-057>066-NYZ062>081-310000-
EAST


CITY           SKY/WX    TMP DP  RH WIND       PRES   REMARKS
ALBANY         PTCLDY    46  35  65 W13       30.01R
GLENS FALLS    CLEAR     44  32  62 NW7       30.00R
POUGHKEEPSIE   CLOUDY    53  37  54 W6        29.99R
NEWBURGH       MOCLDY    48  37  66 W10       30.01R
MONTGOMERY     PTCLDY    48  35  60 NW8       30.00R
WHITE PLAINS   CLEAR     49  35  58 W8        29.99R
ISLIP          MOCLDY    52  37  56 W7        29.97R
NEW YORK CITY  CLEAR     53  37  54 NW14      30.00R
CENTRAL PARK   CLEAR     52  33  48 VRB6      30.03R
$$

NYZ005>009-017-018-044>046-055-056-310000-
CENTRAL


CITY           SKY/WX    TMP DP  RH WIND       PRES   REMARKS
FULTON         PTCLDY    42  33  70 W3        30.05R
SYRACUSE       MOCLDY    43  35  73 W5        30.06R
ROME           MOCLDY    39  34  82 W6        30.06R WCI  35
ELMIRA         CLOUDY    47  34  60 CALM      30.03S
BINGHAMTON     CLOUDY    41  32  70 N6        30.02S
MONTICELLO     CLEAR     41  34  75 W6        30.02R
$$

NYZ026>034-041>043-310000-
NORTH


CITY           SKY/WX    TMP DP  RH WIND       PRES   REMARKS
WATERTOWN      PTCLDY    39  32  76 CALM      30.03R
FORT DRUM      NOT AVBL
MASSENA        CLOUDY    42  30  62 W3        30.04R
SARANAC LAKE   CLOUDY    35  32  88 SW5       29.98R WCI  31
PLATTSBURGH    CLOUDY    45  32  60 NW5       30.02R
$$

NYZ001>004-010>016-019>021-310000-
WEST


CITY           SKY/WX    TMP DP  RH WIND       PRES   REMARKS
NIAGARA FALLS  MOCLDY    46  34  62 NW6       30.05R
BUFFALO        CLOUDY    47  34  60 W7        30.05R
DUNKIRK        CLOUDY    47  35  63 W5        30.06S
JAMESTOWN      CLOUDY    43  34  70 W3        30.05R
WELLSVILLE     CLOUDY    41  32  70 NW8       30.04R
ROCHESTER      MOCLDY    44  35  70 NW3       30.06R
PENN YAN       MOCLDY    42  34  73 CALM      30.05R
$$

             KEY
       WCI = WIND CHILL INDEX
       VSB = VISIBILITY
       HX  = HEAT INDEX
$$



USA.gov is the U.S. government's official web portal to all federal, state and local government web resources and services.